Time,TemperatureF,DewpointF,PressureIn,WindDirection,WindDirectionDegrees,WindSpeedMPH,WindSpeedGustMPH,Humidity,HourlyPrecipIn,Conditions,Clouds,dailyrainin,SoftwareType,DateUTC
2013-11-28 00:00:00,21.9,14.3,30.12,South,188,0.0,3.0,72,0.00,,---,0.00,VWS V14.00,2013-11-28 06:00:00,
2013-11-28 00:02:00,21.9,14.3,30.12,South,187,0.0,0.0,72,0.00,,---,0.00,VWS V14.00,2013-11-28 06:02:00,
2013-11-28 00:05:00,21.9,14.3,30.12,South,186,1.0,4.0,72,0.00,,---,0.00,VWS V14.00,2013-11-28 06:05:00,
2013-11-28 00:07:00,21.9,14.3,30.12,South,186,2.0,2.0,72,0.00,,---,0.00,VWS V14.00,2013-11-28 06:07:00,
2013-11-28 00:10:00,21.9,14.3,30.12,South,186,0.0,2.0,72,0.00,,---,0.00,VWS V14.00,2013-11-28 06:10:00,
2013-11-28 00:12:00,21.9,14.3,30.12,South,186,0.0,1.0,72,0.00,,---,0.00,VWS V14.00,2013-11-28 06:12:00,
2013-11-28 00:15:00,21.9,14.3,30.12,South,186,0.0,1.0,72,0.00,,---,0.00,VWS V14.00,2013-11-28 06:15:00,
2013-11-28 00:17:00,21.9,14.3,30.12,South,186,0.0,2.0,72,0.00,,---,0.00,VWS V14.00,2013-11-28 06:17:00,
2013-11-28 00:20:00,21.9,14.3,30.12,South,186,0.0,2.0,72,0.00,,---,0.00,VWS V14.00,2013-11-28 06:20:00,
2013-11-28 00:22:00,21.9,14.3,30.12,South,186,0.0,0.0,72,0.00,,---,0.00,VWS V14.00,2013-11-28 06:22:00,
2013-11-28 00:25:00,21.9,14.3,30.12,South,186,0.0,0.0,72,0.00,,---,0.00,VWS V14.00,2013-11-28 06:25:00,
2013-11-28 00:27:00,21.9,14.3,30.11,South,186,0.0,0.0,72,0.00,,---,0.00,VWS V14.00,2013-11-28 06:27:00,
2013-11-28 00:30:00,21.9,14.3,30.11,South,186,0.0,1.0,72,0.00,,---,0.00,VWS V14.00,2013-11-28 06:30:00,
2013-11-28 00:32:00,21.9,14.3,30.11,South,186,1.0,1.0,72,0.00,,---,0.00,VWS V14.00,2013-11-28 06:32:00,
2013-11-28 00:35:00,21.9,14.3,30.11,South,186,0.0,1.0,72,0.00,,---,0.00,VWS V14.00,2013-11-28 06:35:00,
2013-11-28 00:37:00,21.9,14.3,30.11,South,186,1.0,2.0,72,0.00,,---,0.00,VWS V14.00,2013-11-28 06:37:00,
2013-11-28 00:40:00,21.9,14.3,30.11,South,186,0.0,2.0,72,0.00,,---,0.00,VWS V14.00,2013-11-28 06:40:00,
2013-11-28 00:42:00,21.9,14.3,30.11,South,186,0.0,1.0,72,0.00,,---,0.00,VWS V14.00,2013-11-28 06:42:00,
2013-11-28 00:45:00,21.9,14.3,30.11,South,186,0.0,1.0,72,0.00,,---,0.00,VWS V14.00,2013-11-28 06:45:00,
2013-11-28 00:47:00,21.9,14.3,30.11,SSE,168,1.0,3.0,72,0.00,,---,0.00,VWS V14.00,2013-11-28 06:47:00,
2013-11-28 00:50:00,21.9,14.3,30.11,SSE,168,0.0,3.0,72,0.00,,---,0.00,VWS V14.00,2013-11-28 06:50:00,
2013-11-28 00:52:00,21.9,14.3,30.11,SSE,168,0.0,2.0,72,0.00,,---,0.00,VWS V14.00,2013-11-28 06:52:00,
2013-11-28 00:55:00,21.9,14.3,30.11,SSE,168,0.0,2.0,72,0.00,,---,0.00,VWS V14.00,2013-11-28 06:55:00,
2013-11-28 00:57:00,22.0,14.7,30.10,SSE,168,2.0,2.0,73,0.00,,---,0.00,VWS V14.00,2013-11-28 06:57:00,
2013-11-28 01:00:00,21.9,14.3,30.10,SSE,168,1.0,3.0,72,0.00,,---,0.00,VWS V14.00,2013-11-28 07:00:00,
2013-11-28 01:02:00,21.9,14.3,30.10,SSE,168,0.0,3.0,72,0.00,,---,0.00,VWS V14.00,2013-11-28 07:02:00,
2013-11-28 01:05:00,22.0,14.4,30.10,SSE,168,1.0,3.0,72,0.00,,---,0.00,VWS V14.00,2013-11-28 07:05:00,
2013-11-28 01:07:00,22.0,14.4,30.10,SSE,168,3.0,3.0,72,0.00,,---,0.00,VWS V14.00,2013-11-28 07:07:00,
2013-11-28 01:10:00,21.9,14.3,30.10,SSE,168,0.0,3.0,72,0.00,,---,0.00,VWS V14.00,2013-11-28 07:10:00,
2013-11-28 01:12:00,22.0,14.4,30.10,SSE,155,1.0,4.0,72,0.00,,---,0.00,VWS V14.00,2013-11-28 07:12:00,
2013-11-28 01:15:00,22.0,14.4,30.10,SSE,155,2.0,4.0,72,0.00,,---,0.00,VWS V14.00,2013-11-28 07:15:00,
2013-11-28 01:17:00,22.0,14.4,30.10,SSE,156,0.0,4.0,72,0.00,,---,0.00,VWS V14.00,2013-11-28 07:17:00,
2013-11-28 01:20:00,22.0,14.4,30.10,SSE,155,2.0,4.0,72,0.00,,---,0.00,VWS V14.00,2013-11-28 07:20:00,
2013-11-28 01:22:00,22.0,14.4,30.10,SSE,155,2.0,3.0,72,0.00,,---,0.00,VWS V14.00,2013-11-28 07:22:00,
2013-11-28 01:25:00,22.0,14.4,30.09,SSE,159,3.0,3.0,72,0.00,,---,0.00,VWS V14.00,2013-11-28 07:25:00,
2013-11-28 01:27:00,22.1,14.1,30.10,SSE,150,2.0,5.0,71,0.00,,---,0.00,VWS V14.00,2013-11-28 07:27:00,
2013-11-28 01:30:00,22.1,14.1,30.10,SSE,150,0.0,5.0,71,0.00,,---,0.00,VWS V14.00,2013-11-28 07:30:00,
2013-11-28 01:32:00,22.1,14.5,30.09,SSW,202,0.0,5.0,72,0.00,,---,0.00,VWS V14.00,2013-11-28 07:32:00,
2013-11-28 01:35:00,22.1,14.5,30.09,SSE,163,1.0,5.0,72,0.00,,---,0.00,VWS V14.00,2013-11-28 07:35:00,
2013-11-28 01:37:00,22.1,14.1,30.09,SSE,164,3.0,5.0,71,0.00,,---,0.00,VWS V14.00,2013-11-28 07:37:00,
2013-11-28 01:40:00,22.1,14.1,30.09,SSE,165,0.0,5.0,71,0.00,,---,0.00,VWS V14.00,2013-11-28 07:40:00,
2013-11-28 01:42:00,22.1,14.5,30.09,South,183,0.0,5.0,72,0.00,,---,0.00,VWS V14.00,2013-11-28 07:42:00,
2013-11-28 01:45:00,22.1,14.5,30.09,SSE,160,2.0,5.0,72,0.00,,---,0.00,VWS V14.00,2013-11-28 07:45:00,
2013-11-28 01:47:00,22.1,14.5,30.09,SSE,165,3.0,4.0,72,0.00,,---,0.00,VWS V14.00,2013-11-28 07:47:00,
2013-11-28 01:50:00,22.1,14.5,30.09,SSE,157,3.0,5.0,72,0.00,,---,0.00,VWS V14.00,2013-11-28 07:50:00,
2013-11-28 01:52:00,22.1,14.5,30.09,South,190,3.0,7.0,72,0.00,,---,0.00,VWS V14.00,2013-11-28 07:52:00,
2013-11-28 01:55:00,22.1,14.5,30.09,SE,144,4.0,7.0,72,0.00,,---,0.00,VWS V14.00,2013-11-28 07:55:00,
2013-11-28 01:57:00,22.1,14.5,30.09,SSE,163,0.0,4.0,72,0.00,,---,0.00,VWS V14.00,2013-11-28 07:57:00,
2013-11-28 02:00:00,22.1,14.5,30.09,SSE,159,2.0,4.0,72,0.00,,---,0.00,VWS V14.00,2013-11-28 08:00:00,
2013-11-28 02:02:00,22.2,14.2,30.09,South,169,0.0,5.0,71,0.00,,---,0.00,VWS V14.00,2013-11-28 08:02:00,
2013-11-28 02:05:00,22.2,14.2,30.09,SSE,159,0.0,5.0,71,0.00,,---,0.00,VWS V14.00,2013-11-28 08:05:00,
2013-11-28 02:07:00,22.2,14.2,30.09,SSE,165,0.0,5.0,71,0.00,,---,0.00,VWS V14.00,2013-11-28 08:07:00,
2013-11-28 02:10:00,22.2,14.2,30.09,South,178,4.0,5.0,71,0.00,,---,0.00,VWS V14.00,2013-11-28 08:10:00,
2013-11-28 02:12:00,22.2,14.2,30.09,SE,142,0.0,5.0,71,0.00,,---,0.00,VWS V14.00,2013-11-28 08:12:00,
2013-11-28 02:15:00,22.2,14.2,30.09,SE,144,2.0,5.0,71,0.00,,---,0.00,VWS V14.00,2013-11-28 08:15:00,
2013-11-28 02:17:00,22.3,14.0,30.09,SSE,154,0.0,4.0,70,0.00,,---,0.00,VWS V14.00,2013-11-28 08:17:00,
2013-11-28 02:20:00,22.3,14.3,30.09,SSE,153,0.0,4.0,71,0.00,,---,0.00,VWS V14.00,2013-11-28 08:20:00,
2013-11-28 02:22:00,22.3,14.0,30.08,SSE,153,2.0,4.0,70,0.00,,---,0.00,VWS V14.00,2013-11-28 08:22:00,
2013-11-28 02:25:00,22.3,14.3,30.08,SSE,153,0.0,4.0,71,0.00,,---,0.00,VWS V14.00,2013-11-28 08:25:00,
2013-11-28 02:27:00,22.3,14.0,30.08,SSE,153,7.0,7.0,70,0.00,,---,0.00,VWS V14.00,2013-11-28 08:27:00,
2013-11-28 02:30:00,22.3,14.0,30.08,SE,141,3.0,7.0,70,0.00,,---,0.00,VWS V14.00,2013-11-28 08:30:00,
2013-11-28 02:32:00,22.4,14.4,30.08,SSE,154,0.0,7.0,71,0.00,,---,0.00,VWS V14.00,2013-11-28 08:32:00,
2013-11-28 02:35:00,22.4,14.1,30.08,South,189,3.0,7.0,70,0.00,,---,0.00,VWS V14.00,2013-11-28 08:35:00,
2013-11-28 02:37:00,22.3,14.0,30.08,SSE,155,0.0,5.0,70,0.00,,---,0.00,VWS V14.00,2013-11-28 08:37:00,
2013-11-28 02:40:00,22.4,14.4,30.08,SSE,155,0.0,5.0,71,0.00,,---,0.00,VWS V14.00,2013-11-28 08:40:00,
2013-11-28 02:42:00,22.3,14.3,30.08,SSE,159,1.0,3.0,71,0.00,,---,0.00,VWS V14.00,2013-11-28 08:42:00,
2013-11-28 02:45:00,22.3,14.3,30.08,SE,145,3.0,5.0,71,0.00,,---,0.00,VWS V14.00,2013-11-28 08:45:00,
2013-11-28 02:47:00,22.4,14.4,30.08,SSW,198,2.0,6.0,71,0.00,,---,0.00,VWS V14.00,2013-11-28 08:47:00,
2013-11-28 02:50:00,22.4,14.4,30.08,SSE,163,2.0,6.0,71,0.00,,---,0.00,VWS V14.00,2013-11-28 08:50:00,
2013-11-28 02:52:00,22.3,14.3,30.07,SE,143,2.0,5.0,71,0.00,,---,0.00,VWS V14.00,2013-11-28 08:52:00,
2013-11-28 02:55:00,22.4,14.4,30.07,SSE,150,0.0,5.0,71,0.00,,---,0.00,VWS V14.00,2013-11-28 08:55:00,
2013-11-28 02:57:00,22.3,14.7,30.07,SSE,150,0.0,3.0,72,0.00,,---,0.00,VWS V14.00,2013-11-28 08:57:00,
2013-11-28 03:00:00,22.4,14.8,30.07,SSE,165,1.0,4.0,72,0.00,,---,0.00,VWS V14.00,2013-11-28 09:00:00,
2013-11-28 03:02:00,22.4,14.8,30.07,SSE,157,0.0,5.0,72,0.00,,---,0.00,VWS V14.00,2013-11-28 09:02:00,
2013-11-28 03:05:00,22.4,14.8,30.07,SSE,150,2.0,5.0,72,0.00,,---,0.00,VWS V14.00,2013-11-28 09:05:00,
2013-11-28 03:07:00,22.4,14.8,30.07,SSE,159,0.0,6.0,72,0.00,,---,0.00,VWS V14.00,2013-11-28 09:07:00,
2013-11-28 03:10:00,22.4,14.8,30.07,SSE,159,0.0,6.0,72,0.00,,---,0.00,VWS V14.00,2013-11-28 09:10:00,
2013-11-28 03:12:00,22.4,14.8,30.06,SSE,149,4.0,4.0,72,0.00,,---,0.00,VWS V14.00,2013-11-28 09:12:00,
2013-11-28 03:15:00,22.4,14.8,30.06,SSE,157,3.0,5.0,72,0.00,,---,0.00,VWS V14.00,2013-11-28 09:15:00,
2013-11-28 03:17:00,22.4,14.8,30.06,South,171,6.0,6.0,72,0.00,,---,0.00,VWS V14.00,2013-11-28 09:17:00,
2013-11-28 03:20:00,22.4,14.8,30.06,SE,136,0.0,6.0,72,0.00,,---,0.00,VWS V14.00,2013-11-28 09:20:00,
2013-11-28 03:22:00,22.4,14.8,30.06,SSE,155,2.0,6.0,72,0.00,,---,0.00,VWS V14.00,2013-11-28 09:22:00,
2013-11-28 03:25:00,22.4,14.8,30.06,SE,129,0.0,6.0,72,0.00,,---,0.00,VWS V14.00,2013-11-28 09:25:00,
2013-11-28 03:27:00,22.4,14.8,30.06,SE,136,2.0,5.0,72,0.00,,---,0.00,VWS V14.00,2013-11-28 09:27:00,
2013-11-28 03:30:00,22.4,14.8,30.06,SSE,151,0.0,5.0,72,0.00,,---,0.00,VWS V14.00,2013-11-28 09:30:00,
2013-11-28 03:32:00,22.4,14.8,30.06,SSE,163,4.0,10.0,72,0.00,,---,0.00,VWS V14.00,2013-11-28 09:32:00,
2013-11-28 03:35:00,22.4,14.8,30.06,SSE,161,2.0,10.0,72,0.00,,---,0.00,VWS V14.00,2013-11-28 09:35:00,
2013-11-28 03:37:00,22.4,15.1,30.06,SSE,149,0.0,5.0,73,0.00,,---,0.00,VWS V14.00,2013-11-28 09:37:00,
2013-11-28 03:40:00,22.4,15.1,30.06,SSE,157,3.0,5.0,73,0.00,,---,0.00,VWS V14.00,2013-11-28 09:40:00,
2013-11-28 03:42:00,22.4,15.1,30.06,SE,145,1.0,5.0,73,0.00,,---,0.00,VWS V14.00,2013-11-28 09:42:00,
2013-11-28 03:45:00,22.4,15.1,30.06,SE,142,6.0,7.0,73,0.00,,---,0.00,VWS V14.00,2013-11-28 09:45:00,
2013-11-28 03:47:00,22.5,14.9,30.06,SSE,153,3.0,6.0,72,0.00,,---,0.00,VWS V14.00,2013-11-28 09:47:00,
2013-11-28 03:50:00,22.5,15.2,30.06,SSE,153,2.0,6.0,73,0.00,,---,0.00,VWS V14.00,2013-11-28 09:50:00,
2013-11-28 03:52:00,22.5,15.2,30.06,SSE,153,0.0,3.0,73,0.00,,---,0.00,VWS V14.00,2013-11-28 09:52:00,
2013-11-28 03:55:00,22.5,15.2,30.06,South,171,2.0,3.0,73,0.00,,---,0.00,VWS V14.00,2013-11-28 09:55:00,
2013-11-28 03:57:00,22.5,15.2,30.06,South,175,3.0,5.0,73,0.00,,---,0.00,VWS V14.00,2013-11-28 09:57:00,
2013-11-28 04:00:00,22.5,15.2,30.06,SSE,147,0.0,5.0,73,0.00,,---,0.00,VWS V14.00,2013-11-28 10:00:00,
2013-11-28 04:02:00,22.5,14.9,30.06,SE,141,2.0,6.0,72,0.00,,---,0.00,VWS V14.00,2013-11-28 10:02:00,
2013-11-28 04:05:00,22.5,15.2,30.06,SSW,193,3.0,6.0,73,0.00,,---,0.00,VWS V14.00,2013-11-28 10:05:00,
2013-11-28 04:07:00,22.5,15.2,30.06,SSE,149,0.0,3.0,73,0.00,,---,0.00,VWS V14.00,2013-11-28 10:07:00,
2013-11-28 04:10:00,22.5,15.2,30.06,SSE,162,0.0,3.0,73,0.00,,---,0.00,VWS V14.00,2013-11-28 10:10:00,
2013-11-28 04:12:00,22.5,15.2,30.06,SSE,168,2.0,4.0,73,0.00,,---,0.00,VWS V14.00,2013-11-28 10:12:00,
2013-11-28 04:15:00,22.6,15.3,30.06,SSE,165,2.0,4.0,73,0.00,,---,0.00,VWS V14.00,2013-11-28 10:15:00,
2013-11-28 04:17:00,22.6,14.9,30.06,South,177,4.0,7.0,72,0.00,,---,0.00,VWS V14.00,2013-11-28 10:17:00,
2013-11-28 04:20:00,22.6,14.9,30.06,South,188,0.0,7.0,72,0.00,,---,0.00,VWS V14.00,2013-11-28 10:20:00,
2013-11-28 04:22:00,22.6,14.9,30.06,South,187,0.0,1.0,72,0.00,,---,0.00,VWS V14.00,2013-11-28 10:22:00,
2013-11-28 04:25:00,22.6,14.9,30.06,South,169,2.0,2.0,72,0.00,,---,0.00,VWS V14.00,2013-11-28 10:25:00,
2013-11-28 04:27:00,22.6,14.9,30.06,SSE,165,3.0,3.0,72,0.00,,---,0.00,VWS V14.00,2013-11-28 10:27:00,
2013-11-28 04:30:00,22.6,14.9,30.06,SSE,156,0.0,4.0,72,0.00,,---,0.00,VWS V14.00,2013-11-28 10:30:00,
2013-11-28 04:32:00,22.7,15.1,30.06,SSE,157,0.0,3.0,72,0.00,,---,0.00,VWS V14.00,2013-11-28 10:32:00,
2013-11-28 04:35:00,22.7,15.1,30.06,South,190,0.0,4.0,72,0.00,,---,0.00,VWS V14.00,2013-11-28 10:35:00,
2013-11-28 04:37:00,22.7,15.1,30.06,SSE,160,1.0,3.0,72,0.00,,---,0.00,VWS V14.00,2013-11-28 10:37:00,
2013-11-28 04:40:00,22.7,15.1,30.06,South,191,3.0,4.0,72,0.00,,---,0.00,VWS V14.00,2013-11-28 10:40:00,
2013-11-28 04:42:00,22.7,15.1,30.06,SSE,152,3.0,6.0,72,0.00,,---,0.00,VWS V14.00,2013-11-28 10:42:00,
2013-11-28 04:45:00,22.7,14.7,30.06,SSE,157,4.0,6.0,71,0.00,,---,0.00,VWS V14.00,2013-11-28 10:45:00,
2013-11-28 04:47:00,22.8,14.8,30.06,SSE,163,1.0,4.0,71,0.00,,---,0.00,VWS V14.00,2013-11-28 10:47:00,
2013-11-28 04:50:00,22.8,14.8,30.06,SE,144,3.0,4.0,71,0.00,,---,0.00,VWS V14.00,2013-11-28 10:50:00,
2013-11-28 04:52:00,22.8,14.8,30.06,SSE,150,2.0,5.0,71,0.00,,---,0.00,VWS V14.00,2013-11-28 10:52:00,
2013-11-28 04:55:00,22.8,14.8,30.06,South,178,1.0,5.0,71,0.00,,---,0.00,VWS V14.00,2013-11-28 10:55:00,
2013-11-28 04:57:00,22.9,14.9,30.06,South,178,0.0,5.0,71,0.00,,---,0.00,VWS V14.00,2013-11-28 10:57:00,
2013-11-28 05:00:00,22.9,14.9,30.06,SSW,192,3.0,5.0,71,0.00,,---,0.00,VWS V14.00,2013-11-28 11:00:00,
2013-11-28 05:02:00,22.9,14.6,30.06,South,174,0.0,4.0,70,0.00,,---,0.00,VWS V14.00,2013-11-28 11:02:00,
2013-11-28 05:05:00,22.9,14.6,30.06,South,173,0.0,4.0,70,0.00,,---,0.00,VWS V14.00,2013-11-28 11:05:00,
2013-11-28 05:07:00,22.9,14.6,30.06,SSE,161,0.0,4.0,70,0.00,,---,0.00,VWS V14.00,2013-11-28 11:07:00,
2013-11-28 05:10:00,22.9,14.9,30.06,SSE,164,1.0,4.0,71,0.00,,---,0.00,VWS V14.00,2013-11-28 11:10:00,
2013-11-28 05:12:00,22.9,14.6,30.06,SSE,149,0.0,4.0,70,0.00,,---,0.00,VWS V14.00,2013-11-28 11:12:00,
2013-11-28 05:15:00,22.9,14.6,30.06,SSE,149,0.0,4.0,70,0.00,,---,0.00,VWS V14.00,2013-11-28 11:15:00,
2013-11-28 05:17:00,22.9,14.9,30.06,SE,143,6.0,6.0,71,0.00,,---,0.00,VWS V14.00,2013-11-28 11:17:00,
2013-11-28 05:20:00,23.0,14.7,30.06,SE,142,2.0,6.0,70,0.00,,---,0.00,VWS V14.00,2013-11-28 11:20:00,
2013-11-28 05:22:00,23.0,16.6,30.06,South,170,0.0,3.0,76,0.00,,---,0.00,VWS V14.00,2013-11-28 11:22:00,
2013-11-28 05:25:00,23.0,14.7,30.06,South,170,2.0,3.0,70,0.00,,---,0.00,VWS V14.00,2013-11-28 11:25:00,
2013-11-28 05:27:00,23.0,14.7,30.06,SSE,163,0.0,5.0,70,0.00,,---,0.00,VWS V14.00,2013-11-28 11:27:00,
2013-11-28 05:30:00,23.0,14.7,30.06,SSE,163,0.0,5.0,70,0.00,,---,0.00,VWS V14.00,2013-11-28 11:30:00,
2013-11-28 05:32:00,23.0,15.0,30.06,SSE,163,0.0,1.0,71,0.00,,---,0.00,VWS V14.00,2013-11-28 11:32:00,
2013-11-28 05:35:00,23.0,15.0,30.06,SSE,165,4.0,4.0,71,0.00,,---,0.00,VWS V14.00,2013-11-28 11:35:00,
2013-11-28 05:37:00,23.1,14.8,30.06,South,178,2.0,5.0,70,0.00,,---,0.00,VWS V14.00,2013-11-28 11:37:00,
2013-11-28 05:40:00,23.1,14.8,30.06,SSE,160,0.0,5.0,70,0.00,,---,0.00,VWS V14.00,2013-11-28 11:40:00,
2013-11-28 05:42:00,23.1,14.8,30.06,South,173,3.0,3.0,70,0.00,,---,0.00,VWS V14.00,2013-11-28 11:42:00,
2013-11-28 05:45:00,23.1,14.8,30.06,SSE,167,0.0,4.0,70,0.00,,---,0.00,VWS V14.00,2013-11-28 11:45:00,
2013-11-28 05:47:00,23.1,14.8,30.06,South,173,3.0,5.0,70,0.00,,---,0.00,VWS V14.00,2013-11-28 11:47:00,
2013-11-28 05:50:00,23.1,14.8,30.06,South,172,0.0,5.0,70,0.00,,---,0.00,VWS V14.00,2013-11-28 11:50:00,
2013-11-28 05:52:00,23.1,14.8,30.06,South,173,0.0,2.0,70,0.00,,---,0.00,VWS V14.00,2013-11-28 11:52:00,
2013-11-28 05:55:00,23.1,14.8,30.06,SSE,158,2.0,4.0,70,0.00,,---,0.00,VWS V14.00,2013-11-28 11:55:00,
2013-11-28 05:57:00,23.1,14.8,30.06,SSE,158,0.0,5.0,70,0.00,,---,0.00,VWS V14.00,2013-11-28 11:57:00,
2013-11-28 06:00:00,23.1,14.8,30.06,SSE,158,2.0,5.0,70,0.00,,---,0.00,VWS V14.00,2013-11-28 12:00:00,
2013-11-28 06:02:00,23.1,14.8,30.06,SSE,158,0.0,2.0,70,0.00,,---,0.00,VWS V14.00,2013-11-28 12:02:00,
2013-11-28 06:05:00,23.1,14.8,30.06,South,188,5.0,5.0,70,0.00,,---,0.00,VWS V14.00,2013-11-28 12:05:00,
2013-11-28 06:07:00,23.2,14.9,30.06,SSE,148,2.0,5.0,70,0.00,,---,0.00,VWS V14.00,2013-11-28 12:07:00,
2013-11-28 06:10:00,23.1,14.8,30.06,South,182,3.0,5.0,70,0.00,,---,0.00,VWS V14.00,2013-11-28 12:10:00,
2013-11-28 06:12:00,23.2,14.9,30.07,SSW,209,1.0,5.0,70,0.00,,---,0.00,VWS V14.00,2013-11-28 12:12:00,
2013-11-28 06:15:00,23.2,14.9,30.07,SSW,207,0.0,5.0,70,0.00,,---,0.00,VWS V14.00,2013-11-28 12:15:00,
2013-11-28 06:17:00,23.2,14.9,30.07,South,184,0.0,6.0,70,0.00,,---,0.00,VWS V14.00,2013-11-28 12:17:00,
2013-11-28 06:20:00,23.2,14.9,30.07,SE,144,0.0,6.0,70,0.00,,---,0.00,VWS V14.00,2013-11-28 12:20:00,
2013-11-28 06:22:00,23.2,14.9,30.07,SE,144,0.0,1.0,70,0.00,,---,0.00,VWS V14.00,2013-11-28 12:22:00,
2013-11-28 06:25:00,23.2,15.2,30.07,SE,144,0.0,2.0,71,0.00,,---,0.00,VWS V14.00,2013-11-28 12:25:00,
2013-11-28 06:27:00,23.2,15.2,30.07,SE,144,0.0,1.0,71,0.00,,---,0.00,VWS V14.00,2013-11-28 12:27:00,
2013-11-28 06:30:00,23.2,15.2,30.07,SE,144,0.0,2.0,71,0.00,,---,0.00,VWS V14.00,2013-11-28 12:30:00,
2013-11-28 06:32:00,23.2,14.9,30.07,SE,146,0.0,5.0,70,0.00,,---,0.00,VWS V14.00,2013-11-28 12:32:00,
2013-11-28 06:35:00,23.2,14.9,30.07,SE,146,0.0,5.0,70,0.00,,---,0.00,VWS V14.00,2013-11-28 12:35:00,
2013-11-28 06:37:00,23.2,15.2,30.08,SE,145,0.0,1.0,71,0.00,,---,0.00,VWS V14.00,2013-11-28 12:37:00,
2013-11-28 06:40:00,23.2,14.9,30.08,SE,146,2.0,2.0,70,0.00,,---,0.00,VWS V14.00,2013-11-28 12:40:00,
2013-11-28 06:42:00,23.2,14.9,30.08,South,169,0.0,6.0,70,0.00,,---,0.00,VWS V14.00,2013-11-28 12:42:00,
2013-11-28 06:45:00,23.2,14.9,30.08,SSE,148,2.0,6.0,70,0.00,,---,0.00,VWS V14.00,2013-11-28 12:45:00,
2013-11-28 06:47:00,23.2,14.9,30.08,South,187,0.0,6.0,70,0.00,,---,0.00,VWS V14.00,2013-11-28 12:47:00,
2013-11-28 06:50:00,23.2,14.9,30.08,South,187,0.0,6.0,70,0.00,,---,0.00,VWS V14.00,2013-11-28 12:50:00,
2013-11-28 06:52:00,23.2,15.2,30.08,SSW,203,0.0,4.0,71,0.00,,---,0.00,VWS V14.00,2013-11-28 12:52:00,
2013-11-28 06:55:00,23.2,14.9,30.08,SSW,203,0.0,4.0,70,0.00,,---,0.00,VWS V14.00,2013-11-28 12:55:00,
2013-11-28 06:57:00,23.2,14.9,30.08,SSE,160,3.0,6.0,70,0.00,,---,0.00,VWS V14.00,2013-11-28 12:57:00,
2013-11-28 07:00:00,23.2,14.9,30.08,SSW,206,2.0,6.0,70,0.00,,---,0.00,VWS V14.00,2013-11-28 13:00:00,
2013-11-28 07:02:00,23.2,14.9,30.08,SSW,205,2.0,5.0,70,0.00,,---,0.00,VWS V14.00,2013-11-28 13:02:00,
2013-11-28 07:05:00,23.2,14.9,30.08,SSW,202,2.0,5.0,70,0.00,,---,0.00,VWS V14.00,2013-11-28 13:05:00,
2013-11-28 07:07:00,23.2,14.9,30.09,SSW,202,0.0,4.0,70,0.00,,---,0.00,VWS V14.00,2013-11-28 13:07:00,
2013-11-28 07:10:00,23.2,14.9,30.08,SSW,198,2.0,4.0,70,0.00,,---,0.00,VWS V14.00,2013-11-28 13:10:00,
2013-11-28 07:12:00,23.2,14.9,30.09,SSE,166,0.0,5.0,70,0.00,,---,0.00,VWS V14.00,2013-11-28 13:12:00,
2013-11-28 07:15:00,23.2,14.9,30.09,South,175,0.0,5.0,70,0.00,,---,0.00,VWS V14.00,2013-11-28 13:15:00,
2013-11-28 07:17:00,23.1,14.8,30.09,South,175,1.0,3.0,70,0.00,,---,0.00,VWS V14.00,2013-11-28 13:17:00,
2013-11-28 07:20:00,23.2,14.6,30.08,South,175,0.0,3.0,69,0.00,,---,0.00,VWS V14.00,2013-11-28 13:20:00,
2013-11-28 07:22:00,23.1,14.8,30.08,South,175,0.0,2.0,70,0.00,,---,0.00,VWS V14.00,2013-11-28 13:22:00,
2013-11-28 07:25:00,23.2,14.9,30.08,South,175,0.0,2.0,70,0.00,,---,0.00,VWS V14.00,2013-11-28 13:25:00,
2013-11-28 07:27:00,23.1,14.8,30.08,SW,223,3.0,6.0,70,0.00,,---,0.00,VWS V14.00,2013-11-28 13:27:00,
2013-11-28 07:30:00,23.1,14.8,30.08,South,182,0.0,6.0,70,0.00,,---,0.00,VWS V14.00,2013-11-28 13:30:00,
2013-11-28 07:32:00,23.2,14.9,30.08,South,187,3.0,4.0,70,0.00,,---,0.00,VWS V14.00,2013-11-28 13:32:00,
2013-11-28 07:35:00,23.1,14.8,30.08,SW,222,3.0,4.0,70,0.00,,---,0.00,VWS V14.00,2013-11-28 13:35:00,
2013-11-28 07:37:00,23.1,14.8,30.08,South,176,4.0,5.0,70,0.00,,---,0.00,VWS V14.00,2013-11-28 13:37:00,
2013-11-28 07:40:00,23.1,14.8,30.08,SSW,203,3.0,5.0,70,0.00,,---,0.00,VWS V14.00,2013-11-28 13:40:00,
2013-11-28 07:42:00,23.1,14.8,30.09,SSW,203,0.0,3.0,70,0.00,,---,0.00,VWS V14.00,2013-11-28 13:42:00,
2013-11-28 07:45:00,23.1,14.8,30.08,SSW,195,0.0,4.0,70,0.00,,---,0.00,VWS V14.00,2013-11-28 13:45:00,
2013-11-28 07:47:00,23.1,14.8,30.09,South,182,0.0,4.0,70,0.00,,---,0.00,VWS V14.00,2013-11-28 13:47:00,
2013-11-28 07:50:00,23.2,14.9,30.09,South,182,0.0,4.0,70,0.00,,---,0.00,VWS V14.00,2013-11-28 13:50:00,
2013-11-28 07:52:00,23.2,15.2,30.09,South,182,0.0,2.0,71,0.00,,---,0.00,VWS V14.00,2013-11-28 13:52:00,
2013-11-28 07:55:00,23.2,14.9,30.09,South,182,2.0,2.0,70,0.00,,---,0.00,VWS V14.00,2013-11-28 13:55:00,
2013-11-28 07:57:00,23.2,14.9,30.10,SSW,202,1.0,4.0,70,0.00,,---,0.00,VWS V14.00,2013-11-28 13:57:00,
2013-11-28 08:00:00,23.3,15.0,30.10,SSW,202,0.0,4.0,70,0.00,,---,0.00,VWS V14.00,2013-11-28 14:00:00,
2013-11-28 08:02:00,23.3,15.0,30.10,SSW,202,0.0,0.0,70,0.00,,---,0.00,VWS V14.00,2013-11-28 14:02:00,
2013-11-28 08:05:00,23.3,15.0,30.10,SSE,161,1.0,3.0,70,0.00,,---,0.00,VWS V14.00,2013-11-28 14:05:00,
2013-11-28 08:07:00,23.3,15.0,30.10,South,171,3.0,5.0,70,0.00,,---,0.00,VWS V14.00,2013-11-28 14:07:00,
2013-11-28 08:10:00,23.3,15.0,30.10,South,172,1.0,5.0,70,0.00,,---,0.00,VWS V14.00,2013-11-28 14:10:00,
2013-11-28 08:12:00,23.4,15.1,30.11,South,175,3.0,4.0,70,0.00,,---,0.00,VWS V14.00,2013-11-28 14:12:00,
2013-11-28 08:15:00,23.3,15.0,30.10,SSE,158,4.0,5.0,70,0.00,,---,0.00,VWS V14.00,2013-11-28 14:15:00,
2013-11-28 08:17:00,23.3,15.0,30.10,SSW,202,0.0,4.0,70,0.00,,---,0.00,VWS V14.00,2013-11-28 14:17:00,
2013-11-28 08:20:00,23.4,15.1,30.11,South,173,1.0,5.0,70,0.00,,---,0.00,VWS V14.00,2013-11-28 14:20:00,
2013-11-28 08:22:00,23.4,15.1,30.10,SSE,155,1.0,4.0,70,0.00,,---,0.00,VWS V14.00,2013-11-28 14:22:00,
2013-11-28 08:25:00,23.4,15.1,30.11,SSW,207,1.0,6.0,70,0.00,,---,0.00,VWS V14.00,2013-11-28 14:25:00,
2013-11-28 08:27:00,23.4,15.1,30.11,SSW,199,5.0,6.0,70,0.00,,---,0.00,VWS V14.00,2013-11-28 14:27:00,
2013-11-28 08:30:00,23.4,14.8,30.11,SSW,210,1.0,6.0,69,0.00,,---,0.00,VWS V14.00,2013-11-28 14:30:00,
2013-11-28 08:32:00,23.4,15.1,30.11,South,171,0.0,4.0,70,0.00,,---,0.00,VWS V14.00,2013-11-28 14:32:00,
2013-11-28 08:35:00,23.4,15.1,30.11,South,171,0.0,4.0,70,0.00,,---,0.00,VWS V14.00,2013-11-28 14:35:00,
2013-11-28 08:37:00,23.5,15.2,30.11,South,171,1.0,3.0,70,0.00,,---,0.00,VWS V14.00,2013-11-28 14:37:00,
2013-11-28 08:40:00,23.5,15.2,30.11,South,171,0.0,3.0,70,0.00,,---,0.00,VWS V14.00,2013-11-28 14:40:00,
2013-11-28 08:42:00,23.6,15.3,30.11,SSW,193,2.0,6.0,70,0.00,,---,0.00,VWS V14.00,2013-11-28 14:42:00,
2013-11-28 08:45:00,23.6,14.9,30.11,SSW,205,2.0,6.0,69,0.00,,---,0.00,VWS V14.00,2013-11-28 14:45:00,
2013-11-28 08:47:00,23.6,14.9,30.11,SW,232,0.0,4.0,69,0.00,,---,0.00,VWS V14.00,2013-11-28 14:47:00,
2013-11-28 08:50:00,23.6,14.9,30.11,South,185,1.0,4.0,69,0.00,,---,0.00,VWS V14.00,2013-11-28 14:50:00,
2013-11-28 08:52:00,23.7,15.4,30.11,SSW,205,3.0,5.0,70,0.00,,---,0.00,VWS V14.00,2013-11-28 14:52:00,
2013-11-28 08:55:00,23.8,15.5,30.11,SSE,160,2.0,5.0,70,0.00,,---,0.00,VWS V14.00,2013-11-28 14:55:00,
2013-11-28 08:57:00,23.8,15.5,30.11,SSE,159,0.0,3.0,70,0.00,,---,0.00,VWS V14.00,2013-11-28 14:57:00,
2013-11-28 09:00:00,23.8,15.1,30.11,SSW,200,3.0,4.0,69,0.00,,---,0.00,VWS V14.00,2013-11-28 15:00:00,
2013-11-28 09:02:00,23.8,15.1,30.11,SSE,153,0.0,5.0,69,0.00,,---,0.00,VWS V14.00,2013-11-28 15:02:00,
2013-11-28 09:05:00,23.9,15.6,30.11,South,190,2.0,5.0,70,0.00,,---,0.00,VWS V14.00,2013-11-28 15:05:00,
2013-11-28 09:07:00,23.9,15.2,30.11,South,188,0.0,4.0,69,0.00,,---,0.00,VWS V14.00,2013-11-28 15:07:00,
2013-11-28 09:10:00,23.9,15.2,30.11,South,186,0.0,4.0,69,0.00,,---,0.00,VWS V14.00,2013-11-28 15:10:00,
2013-11-28 09:12:00,24.0,15.3,30.11,South,186,3.0,5.0,69,0.00,,---,0.00,VWS V14.00,2013-11-28 15:12:00,
2013-11-28 09:15:00,24.1,15.4,30.11,South,188,0.0,5.0,69,0.00,,---,0.00,VWS V14.00,2013-11-28 15:15:00,
2013-11-28 09:17:00,24.2,15.5,30.11,SSW,198,0.0,3.0,69,0.00,,---,0.00,VWS V14.00,2013-11-28 15:17:00,
2013-11-28 09:20:00,24.2,15.5,30.11,West,260,2.0,5.0,69,0.00,,---,0.00,VWS V14.00,2013-11-28 15:20:00,
2013-11-28 09:22:00,24.2,15.5,30.11,SSW,205,0.0,3.0,69,0.00,,---,0.00,VWS V14.00,2013-11-28 15:22:00,
2013-11-28 09:25:00,24.3,15.6,30.11,SSW,205,0.0,3.0,69,0.00,,---,0.00,VWS V14.00,2013-11-28 15:25:00,
2013-11-28 09:27:00,24.3,15.6,30.12,South,180,0.0,4.0,69,0.00,,---,0.00,VWS V14.00,2013-11-28 15:27:00,
2013-11-28 09:30:00,24.3,15.6,30.12,South,180,0.0,4.0,69,0.00,,---,0.00,VWS V14.00,2013-11-28 15:30:00,
2013-11-28 09:32:00,24.4,15.7,30.12,South,178,1.0,3.0,69,0.00,,---,0.00,VWS V14.00,2013-11-28 15:32:00,
2013-11-28 09:35:00,24.5,15.8,30.12,South,178,0.0,3.0,69,0.00,,---,0.00,VWS V14.00,2013-11-28 15:35:00,
2013-11-28 09:37:00,24.6,15.9,30.12,SSW,204,0.0,3.0,69,0.00,,---,0.00,VWS V14.00,2013-11-28 15:37:00,
2013-11-28 09:40:00,24.7,16.0,30.12,SSW,208,2.0,4.0,69,0.00,,---,0.00,VWS V14.00,2013-11-28 15:40:00,
2013-11-28 09:42:00,24.7,16.0,30.12,WSW,257,0.0,2.0,69,0.00,,---,0.00,VWS V14.00,2013-11-28 15:42:00,
2013-11-28 09:45:00,24.8,16.1,30.12,WSW,257,0.0,3.0,69,0.00,,---,0.00,VWS V14.00,2013-11-28 15:45:00,
2013-11-28 09:47:00,24.9,16.2,30.12,West,268,0.0,3.0,69,0.00,,---,0.00,VWS V14.00,2013-11-28 15:47:00,
2013-11-28 09:50:00,24.9,16.2,30.12,West,268,0.0,3.0,69,0.00,,---,0.00,VWS V14.00,2013-11-28 15:50:00,
2013-11-28 09:52:00,25.1,16.4,30.12,West,268,3.0,3.0,69,0.00,,---,0.00,VWS V14.00,2013-11-28 15:52:00,
2013-11-28 09:55:00,25.1,16.4,30.13,WSW,240,2.0,7.0,69,0.00,,---,0.00,VWS V14.00,2013-11-28 15:55:00,
2013-11-28 09:57:00,25.1,16.0,30.13,WSW,253,0.0,4.0,68,0.00,,---,0.00,VWS V14.00,2013-11-28 15:57:00,
2013-11-28 10:00:00,25.0,15.9,30.13,SW,227,0.0,6.0,68,0.00,,---,0.00,VWS V14.00,2013-11-28 16:00:00,
2013-11-28 10:02:00,25.1,16.4,30.13,WSW,237,2.0,2.0,69,0.00,,---,0.00,VWS V14.00,2013-11-28 16:02:00,
2013-11-28 10:05:00,25.1,16.4,30.13,WSW,238,0.0,2.0,69,0.00,,---,0.00,VWS V14.00,2013-11-28 16:05:00,
2013-11-28 10:07:00,25.3,16.6,30.13,WSW,240,0.0,3.0,69,0.00,,---,0.00,VWS V14.00,2013-11-28 16:07:00,
2013-11-28 10:10:00,25.4,16.7,30.13,WSW,240,0.0,3.0,69,0.00,,---,0.00,VWS V14.00,2013-11-28 16:10:00,
2013-11-28 10:12:00,25.6,16.5,30.13,West,275,0.0,3.0,68,0.00,,---,0.00,VWS V14.00,2013-11-28 16:12:00,
2013-11-28 10:15:00,25.6,16.9,30.13,West,275,0.0,3.0,69,0.00,,---,0.00,VWS V14.00,2013-11-28 16:15:00,
2013-11-28 10:17:00,25.8,17.0,30.13,NW,316,7.0,7.0,69,0.00,,---,0.00,VWS V14.00,2013-11-28 16:17:00,
2013-11-28 10:20:00,25.8,16.7,30.13,WNW,294,5.0,7.0,68,0.00,,---,0.00,VWS V14.00,2013-11-28 16:20:00,
2013-11-28 10:22:00,25.8,16.4,30.13,WNW,296,0.0,9.0,67,0.00,,---,0.00,VWS V14.00,2013-11-28 16:22:00,
2013-11-28 10:25:00,25.8,16.4,30.13,WSW,256,0.0,9.0,67,0.00,,---,0.00,VWS V14.00,2013-11-28 16:25:00,
2013-11-28 10:27:00,25.8,16.7,30.12,WNW,301,0.0,3.0,68,0.00,,---,0.00,VWS V14.00,2013-11-28 16:27:00,
2013-11-28 10:30:00,25.8,16.7,30.12,WNW,301,1.0,3.0,68,0.00,,---,0.00,VWS V14.00,2013-11-28 16:30:00,
2013-11-28 10:32:00,25.8,16.7,30.12,NNW,342,2.0,6.0,68,0.00,,---,0.00,VWS V14.00,2013-11-28 16:32:00,
2013-11-28 10:35:00,25.7,16.6,30.13,NNW,329,3.0,6.0,68,0.00,,---,0.00,VWS V14.00,2013-11-28 16:35:00,
2013-11-28 10:37:00,25.6,16.5,30.12,NW,306,0.0,7.0,68,0.00,,---,0.00,VWS V14.00,2013-11-28 16:37:00,
2013-11-28 10:40:00,25.6,16.5,30.13,NW,306,0.0,7.0,68,0.00,,---,0.00,VWS V14.00,2013-11-28 16:40:00,
2013-11-28 10:42:00,25.7,17.0,30.13,WNW,297,2.0,3.0,69,0.00,,---,0.00,VWS V14.00,2013-11-28 16:42:00,
2013-11-28 10:45:00,25.7,16.6,30.13,WNW,287,0.0,3.0,68,0.00,,---,0.00,VWS V14.00,2013-11-28 16:45:00,
2013-11-28 10:47:00,25.7,17.0,30.13,NW,315,0.0,4.0,69,0.00,,---,0.00,VWS V14.00,2013-11-28 16:47:00,
2013-11-28 10:50:00,25.7,17.0,30.13,WNW,300,5.0,5.0,69,0.00,,---,0.00,VWS V14.00,2013-11-28 16:50:00,
2013-11-28 10:52:00,25.7,16.6,30.13,NNW,344,0.0,6.0,68,0.00,,---,0.00,VWS V14.00,2013-11-28 16:52:00,
2013-11-28 10:55:00,25.6,16.5,30.13,WNW,293,0.0,6.0,68,0.00,,---,0.00,VWS V14.00,2013-11-28 16:55:00,
2013-11-28 10:57:00,25.6,16.9,30.13,WNW,286,3.0,3.0,69,0.00,,---,0.00,VWS V14.00,2013-11-28 16:57:00,
2013-11-28 11:00:00,25.6,16.9,30.13,North,5,5.0,5.0,69,0.00,,---,0.00,VWS V14.00,2013-11-28 17:00:00,
2013-11-28 11:02:00,25.6,16.5,30.13,NW,304,5.0,6.0,68,0.00,,---,0.00,VWS V14.00,2013-11-28 17:02:00,
2013-11-28 11:05:00,25.5,16.4,30.13,NW,315,0.0,9.0,68,0.00,,---,0.00,VWS V14.00,2013-11-28 17:05:00,
2013-11-28 11:07:00,25.4,16.3,30.13,WNW,292,2.0,6.0,68,0.00,,---,0.00,VWS V14.00,2013-11-28 17:07:00,
2013-11-28 11:10:00,25.3,16.2,30.13,WNW,287,4.0,7.0,68,0.00,,---,0.00,VWS V14.00,2013-11-28 17:10:00,
2013-11-28 11:12:00,25.3,16.6,30.13,WNW,290,0.0,4.0,69,0.00,,---,0.00,VWS V14.00,2013-11-28 17:12:00,
2013-11-28 11:15:00,25.3,16.6,30.13,WNW,292,0.0,5.0,69,0.00,,---,0.00,VWS V14.00,2013-11-28 17:15:00,
2013-11-28 11:17:00,25.3,16.6,30.13,WNW,298,1.0,4.0,69,0.00,,---,0.00,VWS V14.00,2013-11-28 17:17:00,
2013-11-28 11:20:00,25.3,16.6,30.13,NNW,338,2.0,5.0,69,0.00,,---,0.00,VWS V14.00,2013-11-28 17:20:00,
2013-11-28 11:22:00,25.4,17.0,30.13,NW,325,0.0,4.0,70,0.00,,---,0.00,VWS V14.00,2013-11-28 17:22:00,
2013-11-28 11:25:00,25.4,16.7,30.13,WNW,288,2.0,7.0,69,0.00,,---,0.00,VWS V14.00,2013-11-28 17:25:00,
2013-11-28 11:27:00,25.3,16.6,30.13,North,349,7.0,8.0,69,0.00,,---,0.00,VWS V14.00,2013-11-28 17:27:00,
2013-11-28 11:30:00,25.3,16.6,30.13,NW,315,1.0,8.0,69,0.00,,---,0.00,VWS V14.00,2013-11-28 17:30:00,
2013-11-28 11:32:00,25.4,17.0,30.13,WNW,299,0.0,4.0,70,0.00,,---,0.00,VWS V14.00,2013-11-28 17:32:00,
2013-11-28 11:35:00,25.4,17.0,30.13,NNW,331,5.0,6.0,70,0.00,,---,0.00,VWS V14.00,2013-11-28 17:35:00,
2013-11-28 11:37:00,25.5,16.8,30.13,West,280,3.0,9.0,69,0.00,,---,0.00,VWS V14.00,2013-11-28 17:37:00,
2013-11-28 11:40:00,25.5,16.8,30.13,NW,311,0.0,9.0,69,0.00,,---,0.00,VWS V14.00,2013-11-28 17:40:00,
2013-11-28 11:42:00,25.6,16.9,30.13,NW,309,0.0,5.0,69,0.00,,---,0.00,VWS V14.00,2013-11-28 17:42:00,
2013-11-28 11:45:00,25.7,17.3,30.13,NW,307,0.0,5.0,70,0.00,,---,0.00,VWS V14.00,2013-11-28 17:45:00,
2013-11-28 11:47:00,25.9,17.5,30.13,West,281,3.0,6.0,70,0.00,,---,0.00,VWS V14.00,2013-11-28 17:47:00,
2013-11-28 11:50:00,26.0,17.6,30.13,West,280,0.0,6.0,70,0.00,,---,0.00,VWS V14.00,2013-11-28 17:50:00,
2013-11-28 11:52:00,26.1,17.0,30.13,WNW,288,0.0,6.0,68,0.00,,---,0.00,VWS V14.00,2013-11-28 17:52:00,
2013-11-28 11:55:00,26.2,17.4,30.13,West,261,3.0,9.0,69,0.00,,---,0.00,VWS V14.00,2013-11-28 17:55:00,
2013-11-28 11:57:00,26.7,17.9,30.13,West,277,4.0,4.0,69,0.00,,---,0.00,VWS V14.00,2013-11-28 17:57:00,
2013-11-28 12:00:00,26.8,18.0,30.13,NW,309,2.0,5.0,69,0.00,,---,0.00,VWS V14.00,2013-11-28 18:00:00,
2013-11-28 12:02:00,26.9,17.8,30.13,WNW,303,3.0,7.0,68,0.00,,---,0.00,VWS V14.00,2013-11-28 18:02:00,
2013-11-28 12:05:00,26.9,17.4,30.13,WNW,302,1.0,7.0,67,0.00,,---,0.00,VWS V14.00,2013-11-28 18:05:00,
2013-11-28 12:07:00,26.7,17.2,30.13,NNW,341,3.0,8.0,67,0.00,,---,0.00,VWS V14.00,2013-11-28 18:07:00,
2013-11-28 12:10:00,26.7,17.2,30.13,NNW,329,3.0,8.0,67,0.00,,---,0.00,VWS V14.00,2013-11-28 18:10:00,
2013-11-28 12:12:00,26.7,17.2,30.13,NNW,338,2.0,5.0,67,0.00,,---,0.00,VWS V14.00,2013-11-28 18:12:00,
2013-11-28 12:15:00,26.7,17.2,30.13,WNW,293,1.0,6.0,67,0.00,,---,0.00,VWS V14.00,2013-11-28 18:15:00,
2013-11-28 12:17:00,26.7,17.2,30.14,NW,310,1.0,7.0,67,0.00,,---,0.00,VWS V14.00,2013-11-28 18:17:00,
2013-11-28 12:20:00,26.7,17.6,30.14,NW,310,0.0,7.0,68,0.00,,---,0.00,VWS V14.00,2013-11-28 18:20:00,
2013-11-28 12:22:00,26.9,17.8,30.14,NW,326,0.0,4.0,68,0.00,,---,0.00,VWS V14.00,2013-11-28 18:22:00,
2013-11-28 12:25:00,27.0,17.9,30.14,NW,326,1.0,4.0,68,0.00,,---,0.00,VWS V14.00,2013-11-28 18:25:00,
2013-11-28 12:27:00,27.2,18.0,30.14,WNW,286,1.0,4.0,68,0.00,,---,0.00,VWS V14.00,2013-11-28 18:27:00,
2013-11-28 12:30:00,27.4,18.2,30.14,NW,306,4.0,7.0,68,0.00,,---,0.00,VWS V14.00,2013-11-28 18:30:00,
2013-11-28 12:32:00,27.7,18.5,30.14,NNW,340,2.0,6.0,68,0.00,,---,0.00,VWS V14.00,2013-11-28 18:32:00,
2013-11-28 12:35:00,27.7,18.2,30.14,NW,319,0.0,6.0,67,0.00,,---,0.00,VWS V14.00,2013-11-28 18:35:00,
2013-11-28 12:37:00,28.1,18.2,30.14,NW,321,3.0,5.0,66,0.00,,---,0.00,VWS V14.00,2013-11-28 18:37:00,
2013-11-28 12:40:00,28.1,18.2,30.14,North,355,2.0,5.0,66,0.00,,---,0.00,VWS V14.00,2013-11-28 18:40:00,
2013-11-28 12:42:00,28.2,18.3,30.14,NW,304,4.0,6.0,66,0.00,,---,0.00,VWS V14.00,2013-11-28 18:42:00,
2013-11-28 12:45:00,28.3,18.1,30.14,NNW,341,6.0,7.0,65,0.00,,---,0.00,VWS V14.00,2013-11-28 18:45:00,
2013-11-28 12:47:00,28.1,17.9,30.14,NW,323,0.0,6.0,65,0.00,,---,0.00,VWS V14.00,2013-11-28 18:47:00,
2013-11-28 12:50:00,28.2,18.0,30.14,NW,316,2.0,6.0,65,0.00,,---,0.00,VWS V14.00,2013-11-28 18:50:00,
2013-11-28 12:52:00,28.4,18.1,30.14,NNW,329,4.0,8.0,65,0.00,,---,0.00,VWS V14.00,2013-11-28 18:52:00,
2013-11-28 12:55:00,28.5,18.2,30.14,WNW,290,4.0,8.0,65,0.00,,---,0.00,VWS V14.00,2013-11-28 18:55:00,
2013-11-28 12:57:00,28.6,18.3,30.14,NW,321,0.0,5.0,65,0.00,,---,0.00,VWS V14.00,2013-11-28 18:57:00,
2013-11-28 13:00:00,28.7,18.4,30.14,NW,323,4.0,7.0,65,0.00,,---,0.00,VWS V14.00,2013-11-28 19:00:00,
2013-11-28 13:02:00,28.6,18.0,30.14,NNW,346,3.0,10.0,64,0.00,,---,0.00,VWS V14.00,2013-11-28 19:02:00,
2013-11-28 13:05:00,28.7,18.4,30.14,NNW,343,9.0,10.0,65,0.00,,---,0.00,VWS V14.00,2013-11-28 19:05:00,
2013-11-28 13:07:00,28.9,18.6,30.14,NW,319,6.0,9.0,65,0.00,,---,0.00,VWS V14.00,2013-11-28 19:07:00,
2013-11-28 13:10:00,28.9,18.3,30.14,NNW,338,3.0,9.0,64,0.00,,---,0.00,VWS V14.00,2013-11-28 19:10:00,
2013-11-28 13:12:00,28.8,18.2,30.14,NNW,330,4.0,11.0,64,0.00,,---,0.00,VWS V14.00,2013-11-28 19:12:00,
2013-11-28 13:15:00,28.8,18.2,30.14,NW,314,3.0,11.0,64,0.00,,---,0.00,VWS V14.00,2013-11-28 19:15:00,
2013-11-28 13:17:00,28.7,18.1,30.14,North,360,2.0,6.0,64,0.00,,---,0.00,VWS V14.00,2013-11-28 19:17:00,
2013-11-28 13:20:00,28.8,18.2,30.14,NW,313,1.0,6.0,64,0.00,,---,0.00,VWS V14.00,2013-11-28 19:20:00,
2013-11-28 13:22:00,29.0,18.4,30.15,SW,226,1.0,6.0,64,0.00,,---,0.00,VWS V14.00,2013-11-28 19:22:00,
2013-11-28 13:25:00,29.1,18.8,30.15,WNW,302,3.0,6.0,65,0.00,,---,0.00,VWS V14.00,2013-11-28 19:25:00,
2013-11-28 13:27:00,29.3,18.6,30.15,NW,312,5.0,10.0,64,0.00,,---,0.00,VWS V14.00,2013-11-28 19:27:00,
2013-11-28 13:30:00,29.3,18.6,30.15,NNW,331,3.0,10.0,64,0.00,,---,0.00,VWS V14.00,2013-11-28 19:30:00,
2013-11-28 13:32:00,29.1,18.1,30.15,North,355,0.0,6.0,63,0.00,,---,0.00,VWS V14.00,2013-11-28 19:32:00,
2013-11-28 13:35:00,29.0,18.0,30.15,NNW,327,4.0,6.0,63,0.00,,---,0.00,VWS V14.00,2013-11-28 19:35:00,
2013-11-28 13:37:00,29.3,18.6,30.16,WNW,284,2.0,6.0,64,0.00,,---,0.00,VWS V14.00,2013-11-28 19:37:00,
2013-11-28 13:40:00,29.4,18.7,30.16,West,280,1.0,7.0,64,0.00,,---,0.00,VWS V14.00,2013-11-28 19:40:00,
2013-11-28 13:42:00,29.6,18.9,30.15,West,269,0.0,5.0,64,0.00,,---,0.00,VWS V14.00,2013-11-28 19:42:00,
2013-11-28 13:45:00,29.7,19.0,30.16,NW,312,1.0,6.0,64,0.00,,---,0.00,VWS V14.00,2013-11-28 19:45:00,
2013-11-28 13:47:00,29.8,19.1,30.15,NNW,342,3.0,7.0,64,0.00,,---,0.00,VWS V14.00,2013-11-28 19:47:00,
2013-11-28 13:50:00,29.8,18.8,30.15,NW,316,7.0,7.0,63,0.00,,---,0.00,VWS V14.00,2013-11-28 19:50:00,
2013-11-28 13:52:00,29.8,18.8,30.16,West,279,0.0,7.0,63,0.00,,---,0.00,VWS V14.00,2013-11-28 19:52:00,
2013-11-28 13:55:00,29.8,18.8,30.16,WNW,296,0.0,7.0,63,0.00,,---,0.00,VWS V14.00,2013-11-28 19:55:00,
2013-11-28 13:57:00,29.8,18.8,30.16,NNW,344,6.0,7.0,63,0.00,,---,0.00,VWS V14.00,2013-11-28 19:57:00,
2013-11-28 14:00:00,29.8,18.4,30.16,West,281,0.0,7.0,62,0.00,,---,0.00,VWS V14.00,2013-11-28 20:00:00,
2013-11-28 14:02:00,29.7,18.7,30.16,WNW,291,2.0,6.0,63,0.00,,---,0.00,VWS V14.00,2013-11-28 20:02:00,
2013-11-28 14:05:00,29.7,18.7,30.16,WNW,299,0.0,6.0,63,0.00,,---,0.00,VWS V14.00,2013-11-28 20:05:00,
2013-11-28 14:07:00,29.9,18.9,30.16,WNW,286,0.0,5.0,63,0.00,,---,0.00,VWS V14.00,2013-11-28 20:07:00,
2013-11-28 14:10:00,29.9,18.9,30.16,West,269,2.0,5.0,63,0.00,,---,0.00,VWS V14.00,2013-11-28 20:10:00,
2013-11-28 14:12:00,30.1,19.0,30.16,NW,317,3.0,7.0,63,0.00,,---,0.00,VWS V14.00,2013-11-28 20:12:00,
2013-11-28 14:15:00,30.1,18.7,30.16,NW,316,0.0,7.0,62,0.00,,---,0.00,VWS V14.00,2013-11-28 20:15:00,
2013-11-28 14:17:00,30.1,19.0,30.17,SSW,205,2.0,4.0,63,0.00,,---,0.00,VWS V14.00,2013-11-28 20:17:00,
2013-11-28 14:20:00,30.2,18.8,30.17,West,267,0.0,6.0,62,0.00,,---,0.00,VWS V14.00,2013-11-28 20:20:00,
2013-11-28 14:22:00,30.3,18.9,30.17,West,277,0.0,4.0,62,0.00,,---,0.00,VWS V14.00,2013-11-28 20:22:00,
2013-11-28 14:25:00,30.3,18.9,30.17,WNW,296,5.0,5.0,62,0.00,,---,0.00,VWS V14.00,2013-11-28 20:25:00,
2013-11-28 14:27:00,30.3,18.9,30.17,WNW,284,4.0,6.0,62,0.00,,---,0.00,VWS V14.00,2013-11-28 20:27:00,
2013-11-28 14:30:00,30.3,18.9,30.17,West,267,0.0,6.0,62,0.00,,---,0.00,VWS V14.00,2013-11-28 20:30:00,
2013-11-28 14:32:00,30.2,18.8,30.17,West,259,1.0,6.0,62,0.00,,---,0.00,VWS V14.00,2013-11-28 20:32:00,
2013-11-28 14:35:00,30.1,18.7,30.17,NNW,337,0.0,8.0,62,0.00,,---,0.00,VWS V14.00,2013-11-28 20:35:00,
2013-11-28 14:37:00,29.9,18.5,30.18,West,275,3.0,9.0,62,0.00,,---,0.00,VWS V14.00,2013-11-28 20:37:00,
2013-11-28 14:40:00,29.9,18.5,30.18,WNW,290,0.0,9.0,62,0.00,,---,0.00,VWS V14.00,2013-11-28 20:40:00,
2013-11-28 14:42:00,29.8,18.4,30.18,WNW,291,1.0,5.0,62,0.00,,---,0.00,VWS V14.00,2013-11-28 20:42:00,
2013-11-28 14:45:00,29.8,18.8,30.18,West,280,3.0,5.0,63,0.00,,---,0.00,VWS V14.00,2013-11-28 20:45:00,
2013-11-28 14:47:00,29.8,18.4,30.18,NNW,336,1.0,5.0,62,0.00,,---,0.00,VWS V14.00,2013-11-28 20:47:00,
2013-11-28 14:50:00,29.7,18.3,30.18,NW,315,0.0,6.0,62,0.00,,---,0.00,VWS V14.00,2013-11-28 20:50:00,
2013-11-28 14:52:00,29.7,18.3,30.19,NW,317,10.0,10.0,62,0.00,,---,0.00,VWS V14.00,2013-11-28 20:52:00,
2013-11-28 14:55:00,29.7,18.3,30.19,NNW,332,5.0,10.0,62,0.00,,---,0.00,VWS V14.00,2013-11-28 20:55:00,
2013-11-28 14:57:00,29.7,18.3,30.19,WNW,294,0.0,6.0,62,0.00,,---,0.00,VWS V14.00,2013-11-28 20:57:00,
2013-11-28 15:00:00,29.7,18.3,30.19,NW,323,6.0,7.0,62,0.00,,---,0.00,VWS V14.00,2013-11-28 21:00:00,
2013-11-28 15:02:00,29.7,17.9,30.20,NW,314,4.0,6.0,61,0.00,,---,0.00,VWS V14.00,2013-11-28 21:02:00,
2013-11-28 15:05:00,29.7,17.9,30.20,North,355,0.0,7.0,61,0.00,,---,0.00,VWS V14.00,2013-11-28 21:05:00,
2013-11-28 15:07:00,29.8,18.0,30.20,NNW,344,0.0,6.0,61,0.00,,---,0.00,VWS V14.00,2013-11-28 21:07:00,
2013-11-28 15:10:00,29.7,17.9,30.20,NW,306,6.0,6.0,61,0.00,,---,0.00,VWS V14.00,2013-11-28 21:10:00,
2013-11-28 15:12:00,29.7,17.9,30.20,NW,325,0.0,6.0,61,0.00,,---,0.00,VWS V14.00,2013-11-28 21:12:00,
2013-11-28 15:15:00,29.7,17.9,30.20,NW,321,0.0,6.0,61,0.00,,---,0.00,VWS V14.00,2013-11-28 21:15:00,
2013-11-28 15:17:00,29.6,17.8,30.20,WNW,296,2.0,5.0,61,0.00,,---,0.00,VWS V14.00,2013-11-28 21:17:00,
2013-11-28 15:20:00,29.6,17.4,30.21,NW,315,5.0,5.0,60,0.00,,---,0.00,VWS V14.00,2013-11-28 21:20:00,
2013-11-28 15:22:00,29.6,17.4,30.21,NNW,334,2.0,6.0,60,0.00,,---,0.00,VWS V14.00,2013-11-28 21:22:00,
2013-11-28 15:25:00,29.6,17.4,30.21,NW,309,4.0,11.0,60,0.00,,---,0.00,VWS V14.00,2013-11-28 21:25:00,
2013-11-28 15:27:00,29.7,17.5,30.21,West,279,3.0,7.0,60,0.00,,---,0.00,VWS V14.00,2013-11-28 21:27:00,
2013-11-28 15:30:00,29.6,17.4,30.21,NNW,329,3.0,8.0,60,0.00,,---,0.00,VWS V14.00,2013-11-28 21:30:00,
2013-11-28 15:32:00,29.6,17.4,30.21,NNW,336,5.0,10.0,60,0.00,,---,0.00,VWS V14.00,2013-11-28 21:32:00,
2013-11-28 15:35:00,29.5,17.3,30.21,NW,320,5.0,10.0,60,0.00,,---,0.00,VWS V14.00,2013-11-28 21:35:00,
2013-11-28 15:37:00,29.5,17.3,30.22,NW,314,1.0,9.0,60,0.00,,---,0.00,VWS V14.00,2013-11-28 21:37:00,
2013-11-28 15:40:00,29.5,17.3,30.22,NW,313,0.0,9.0,60,0.00,,---,0.00,VWS V14.00,2013-11-28 21:40:00,
2013-11-28 15:42:00,29.4,17.2,30.22,NW,325,0.0,7.0,60,0.00,,---,0.00,VWS V14.00,2013-11-28 21:42:00,
2013-11-28 15:45:00,29.4,17.2,30.22,NW,325,0.0,7.0,60,0.00,,---,0.00,VWS V14.00,2013-11-28 21:45:00,
2013-11-28 15:47:00,29.3,17.1,30.22,NW,325,0.0,2.0,60,0.00,,---,0.00,VWS V14.00,2013-11-28 21:47:00,
2013-11-28 15:50:00,29.3,17.1,30.22,NW,325,0.0,2.0,60,0.00,,---,0.00,VWS V14.00,2013-11-28 21:50:00,
2013-11-28 15:52:00,29.2,17.1,30.23,NNW,342,0.0,7.0,60,0.00,,---,0.00,VWS V14.00,2013-11-28 21:52:00,
2013-11-28 15:55:00,29.2,17.1,30.23,NNW,338,3.0,7.0,60,0.00,,---,0.00,VWS V14.00,2013-11-28 21:55:00,
2013-11-28 15:57:00,29.2,17.1,30.23,NW,325,3.0,7.0,60,0.00,,---,0.00,VWS V14.00,2013-11-28 21:57:00,
2013-11-28 16:00:00,29.1,17.0,30.23,NW,322,3.0,7.0,60,0.00,,---,0.00,VWS V14.00,2013-11-28 22:00:00,
2013-11-28 16:02:00,29.0,16.9,30.23,NW,317,0.0,3.0,60,0.00,,---,0.00,VWS V14.00,2013-11-28 22:02:00,
2013-11-28 16:05:00,29.0,16.9,30.24,NW,317,0.0,4.0,60,0.00,,---,0.00,VWS V14.00,2013-11-28 22:05:00,
2013-11-28 16:07:00,29.0,16.9,30.24,NNW,337,2.0,6.0,60,0.00,,---,0.00,VWS V14.00,2013-11-28 22:07:00,
2013-11-28 16:10:00,29.0,16.9,30.24,NNW,331,0.0,6.0,60,0.00,,---,0.00,VWS V14.00,2013-11-28 22:10:00,
2013-11-28 16:12:00,29.0,17.2,30.24,WNW,302,0.0,5.0,61,0.00,,---,0.00,VWS V14.00,2013-11-28 22:12:00,
2013-11-28 16:15:00,29.0,17.2,30.24,WNW,299,0.0,5.0,61,0.00,,---,0.00,VWS V14.00,2013-11-28 22:15:00,
2013-11-28 16:17:00,29.0,17.2,30.24,WNW,300,0.0,5.0,61,0.00,,---,0.00,VWS V14.00,2013-11-28 22:17:00,
2013-11-28 16:20:00,29.0,17.2,30.24,WNW,300,0.0,5.0,61,0.00,,---,0.00,VWS V14.00,2013-11-28 22:20:00,
2013-11-28 16:22:00,28.9,17.2,30.25,WNW,300,0.0,2.0,61,0.00,,---,0.00,VWS V14.00,2013-11-28 22:22:00,
2013-11-28 16:25:00,28.9,17.2,30.25,WNW,300,0.0,2.0,61,0.00,,---,0.00,VWS V14.00,2013-11-28 22:25:00,
2013-11-28 16:27:00,28.9,17.2,30.25,NW,325,2.0,5.0,61,0.00,,---,0.00,VWS V14.00,2013-11-28 22:27:00,
2013-11-28 16:30:00,28.9,17.2,30.25,NW,320,0.0,5.0,61,0.00,,---,0.00,VWS V14.00,2013-11-28 22:30:00,
2013-11-28 16:32:00,28.8,17.4,30.25,NW,319,1.0,4.0,62,0.00,,---,0.00,VWS V14.00,2013-11-28 22:32:00,
2013-11-28 16:35:00,28.8,17.1,30.25,NW,319,2.0,4.0,61,0.00,,---,0.00,VWS V14.00,2013-11-28 22:35:00,
2013-11-28 16:37:00,28.8,17.4,30.25,NW,319,0.0,3.0,62,0.00,,---,0.00,VWS V14.00,2013-11-28 22:37:00,
2013-11-28 16:40:00,28.8,17.4,30.26,NW,319,0.0,3.0,62,0.00,,---,0.00,VWS V14.00,2013-11-28 22:40:00,
2013-11-28 16:42:00,28.8,17.4,30.26,NNW,336,1.0,4.0,62,0.00,,---,0.00,VWS V14.00,2013-11-28 22:42:00,
2013-11-28 16:45:00,28.8,17.4,30.26,NNW,336,0.0,4.0,62,0.00,,---,0.00,VWS V14.00,2013-11-28 22:45:00,
2013-11-28 16:47:00,28.8,17.8,30.26,NNW,336,2.0,2.0,63,0.00,,---,0.00,VWS V14.00,2013-11-28 22:47:00,
2013-11-28 16:50:00,28.8,17.4,30.27,NNW,338,1.0,4.0,62,0.00,,---,0.00,VWS V14.00,2013-11-28 22:50:00,
2013-11-28 16:52:00,28.8,17.4,30.27,NNW,340,0.0,6.0,62,0.00,,---,0.00,VWS V14.00,2013-11-28 22:52:00,
2013-11-28 16:55:00,28.8,17.8,30.26,NNW,342,2.0,6.0,63,0.00,,---,0.00,VWS V14.00,2013-11-28 22:55:00,
2013-11-28 16:57:00,28.8,17.4,30.27,NW,320,0.0,5.0,62,0.00,,---,0.00,VWS V14.00,2013-11-28 22:57:00,
2013-11-28 17:00:00,28.8,17.8,30.27,NNE,14,0.0,6.0,63,0.00,,---,0.00,VWS V14.00,2013-11-28 23:00:00,
2013-11-28 17:02:00,28.8,17.8,30.27,NNE,14,0.0,0.0,63,0.00,,---,0.00,VWS V14.00,2013-11-28 23:02:00,
2013-11-28 17:05:00,28.7,17.7,30.27,NNE,14,0.0,0.0,63,0.00,,---,0.00,VWS V14.00,2013-11-28 23:05:00,
2013-11-28 17:07:00,28.7,17.7,30.27,North,355,3.0,4.0,63,0.00,,---,0.00,VWS V14.00,2013-11-28 23:07:00,
2013-11-28 17:10:00,28.7,17.7,30.28,North,349,0.0,4.0,63,0.00,,---,0.00,VWS V14.00,2013-11-28 23:10:00,
2013-11-28 17:12:00,28.6,17.6,30.28,North,350,0.0,1.0,63,0.00,,---,0.00,VWS V14.00,2013-11-28 23:12:00,
2013-11-28 17:15:00,28.6,17.6,30.28,North,350,0.0,1.0,63,0.00,,---,0.00,VWS V14.00,2013-11-28 23:15:00,
2013-11-28 17:17:00,28.6,17.6,30.28,North,355,0.0,0.0,63,0.00,,---,0.00,VWS V14.00,2013-11-28 23:17:00,
2013-11-28 17:20:00,28.6,17.6,30.28,North,355,0.0,1.0,63,0.00,,---,0.00,VWS V14.00,2013-11-28 23:20:00,
2013-11-28 17:22:00,28.6,17.6,30.28,North,355,0.0,1.0,63,0.00,,---,0.00,VWS V14.00,2013-11-28 23:22:00,
2013-11-28 17:25:00,28.5,17.5,30.29,North,355,0.0,1.0,63,0.00,,---,0.00,VWS V14.00,2013-11-28 23:25:00,
2013-11-28 17:27:00,28.5,17.5,30.29,North,355,0.0,0.0,63,0.00,,---,0.00,VWS V14.00,2013-11-28 23:27:00,
2013-11-28 17:30:00,28.5,17.5,30.29,North,355,0.0,0.0,63,0.00,,---,0.00,VWS V14.00,2013-11-28 23:30:00,
2013-11-28 17:32:00,28.5,17.5,30.29,North,355,0.0,0.0,63,0.00,,---,0.00,VWS V14.00,2013-11-28 23:32:00,
2013-11-28 17:35:00,28.5,17.9,30.29,North,355,0.0,0.0,64,0.00,,---,0.00,VWS V14.00,2013-11-28 23:35:00,
2013-11-28 17:37:00,28.4,17.4,30.30,North,355,0.0,0.0,63,0.00,,---,0.00,VWS V14.00,2013-11-28 23:37:00,
2013-11-28 17:40:00,28.4,17.4,30.30,North,355,0.0,0.0,63,0.00,,---,0.00,VWS V14.00,2013-11-28 23:40:00,
2013-11-28 17:42:00,28.4,17.8,30.30,NNW,344,0.0,3.0,64,0.00,,---,0.00,VWS V14.00,2013-11-28 23:42:00,
2013-11-28 17:45:00,28.4,17.8,30.30,NNW,344,0.0,3.0,64,0.00,,---,0.00,VWS V14.00,2013-11-28 23:45:00,
2013-11-28 17:47:00,28.4,17.8,30.30,NNW,344,0.0,2.0,64,0.00,,---,0.00,VWS V14.00,2013-11-28 23:47:00,
2013-11-28 17:50:00,28.4,17.8,30.30,NNW,344,0.0,2.0,64,0.00,,---,0.00,VWS V14.00,2013-11-28 23:50:00,
2013-11-28 17:52:00,28.4,17.8,30.30,NNW,344,1.0,2.0,64,0.00,,---,0.00,VWS V14.00,2013-11-28 23:52:00,
2013-11-28 17:55:00,28.4,17.8,30.30,NNW,344,0.0,2.0,64,0.00,,---,0.00,VWS V14.00,2013-11-28 23:55:00,
2013-11-28 17:57:00,28.4,17.8,30.31,NNW,344,0.0,2.0,64,0.00,,---,0.00,VWS V14.00,2013-11-28 23:57:00,
2013-11-28 18:00:00,28.4,17.8,30.31,NNW,344,0.0,2.0,64,0.00,,---,0.00,VWS V14.00,2013-11-29 00:00:00,
2013-11-28 18:02:00,28.4,17.8,30.31,NNW,344,0.0,2.0,64,0.00,,---,0.00,VWS V14.00,2013-11-29 00:02:00,
2013-11-28 18:05:00,28.4,17.8,30.31,NNW,344,0.0,2.0,64,0.00,,---,0.00,VWS V14.00,2013-11-29 00:05:00,
2013-11-28 18:07:00,28.4,17.8,30.31,NNW,344,0.0,0.0,64,0.00,,---,0.00,VWS V14.00,2013-11-29 00:07:00,
2013-11-28 18:10:00,28.3,17.7,30.31,NNW,344,1.0,1.0,64,0.00,,---,0.00,VWS V14.00,2013-11-29 00:10:00,
2013-11-28 18:12:00,28.3,17.7,30.31,NW,315,0.0,3.0,64,0.00,,---,0.00,VWS V14.00,2013-11-29 00:12:00,
2013-11-28 18:15:00,28.3,17.7,30.31,NW,315,0.0,3.0,64,0.00,,---,0.00,VWS V14.00,2013-11-29 00:15:00,
2013-11-28 18:17:00,28.3,17.3,30.31,NW,315,0.0,2.0,63,0.00,,---,0.00,VWS V14.00,2013-11-29 00:17:00,
2013-11-28 18:20:00,28.3,17.7,30.31,NW,315,0.0,2.0,64,0.00,,---,0.00,VWS V14.00,2013-11-29 00:20:00,
2013-11-28 18:22:00,28.3,17.3,30.32,NW,314,0.0,0.0,63,0.00,,---,0.00,VWS V14.00,2013-11-29 00:22:00,
2013-11-28 18:25:00,28.3,17.7,30.31,NW,315,0.0,0.0,64,0.00,,---,0.00,VWS V14.00,2013-11-29 00:25:00,
2013-11-28 18:27:00,28.3,17.3,30.32,NW,314,0.0,3.0,63,0.00,,---,0.00,VWS V14.00,2013-11-29 00:27:00,
2013-11-28 18:30:00,28.3,17.7,30.32,NW,314,1.0,3.0,64,0.00,,---,0.00,VWS V14.00,2013-11-29 00:30:00,
2013-11-28 18:32:00,28.3,17.3,30.32,NW,315,0.0,1.0,63,0.00,,---,0.00,VWS V14.00,2013-11-29 00:32:00,
2013-11-28 18:35:00,28.3,17.3,30.32,NW,314,0.0,3.0,63,0.00,,---,0.00,VWS V14.00,2013-11-29 00:35:00,
2013-11-28 18:37:00,28.3,17.0,30.32,NNW,338,0.0,4.0,62,0.00,,---,0.00,VWS V14.00,2013-11-29 00:37:00,
2013-11-28 18:40:00,28.3,17.3,30.32,NNW,338,0.0,4.0,63,0.00,,---,0.00,VWS V14.00,2013-11-29 00:40:00,
2013-11-28 18:42:00,28.3,17.3,30.32,NNW,333,0.0,4.0,63,0.00,,---,0.00,VWS V14.00,2013-11-29 00:42:00,
2013-11-28 18:45:00,28.3,17.3,30.33,NNW,333,0.0,4.0,63,0.00,,---,0.00,VWS V14.00,2013-11-29 00:45:00,
2013-11-28 18:47:00,28.3,17.0,30.33,NNW,333,0.0,1.0,62,0.00,,---,0.00,VWS V14.00,2013-11-29 00:47:00,
2013-11-28 18:50:00,28.3,17.0,30.33,NNW,333,0.0,1.0,62,0.00,,---,0.00,VWS V14.00,2013-11-29 00:50:00,
2013-11-28 18:52:00,28.2,16.9,30.33,NNW,342,0.0,5.0,62,0.00,,---,0.00,VWS V14.00,2013-11-29 00:52:00,
2013-11-28 18:55:00,28.3,17.0,30.33,NNW,343,0.0,5.0,62,0.00,,---,0.00,VWS V14.00,2013-11-29 00:55:00,
2013-11-28 18:57:00,28.2,16.9,30.33,NNW,336,0.0,3.0,62,0.00,,---,0.00,VWS V14.00,2013-11-29 00:57:00,
2013-11-28 19:00:00,28.2,16.9,30.33,NNW,336,0.0,3.0,62,0.00,,---,0.00,VWS V14.00,2013-11-29 01:00:00,
2013-11-28 19:02:00,28.2,16.9,30.33,NNW,336,0.0,0.0,62,0.00,,---,0.00,VWS V14.00,2013-11-29 01:02:00,
2013-11-28 19:05:00,28.2,16.9,30.33,NNW,336,0.0,2.0,62,0.00,,---,0.00,VWS V14.00,2013-11-29 01:05:00,
2013-11-28 19:07:00,28.1,17.1,30.33,NNW,336,0.0,3.0,63,0.00,,---,0.00,VWS V14.00,2013-11-29 01:07:00,
2013-11-28 19:10:00,28.1,17.1,30.33,NNW,336,2.0,3.0,63,0.00,,---,0.00,VWS V14.00,2013-11-29 01:10:00,
2013-11-28 19:12:00,28.0,17.4,30.33,NNW,336,0.0,2.0,64,0.00,,---,0.00,VWS V14.00,2013-11-29 01:12:00,
2013-11-28 19:15:00,28.0,17.0,30.33,NNW,336,0.0,2.0,63,0.00,,---,0.00,VWS V14.00,2013-11-29 01:15:00,
2013-11-28 19:17:00,28.0,17.0,30.33,NNW,336,0.0,0.0,63,0.00,,---,0.00,VWS V14.00,2013-11-29 01:17:00,
2013-11-28 19:20:00,27.9,17.0,30.34,NNW,336,0.0,0.0,63,0.00,,---,0.00,VWS V14.00,2013-11-29 01:20:00,
2013-11-28 19:22:00,27.9,17.0,30.34,NNW,336,0.0,0.0,63,0.00,,---,0.00,VWS V14.00,2013-11-29 01:22:00,
2013-11-28 19:25:00,27.9,17.0,30.34,NNW,336,0.0,0.0,63,0.00,,---,0.00,VWS V14.00,2013-11-29 01:25:00,
2013-11-28 19:27:00,27.9,17.0,30.34,NNW,331,0.0,6.0,63,0.00,,---,0.00,VWS V14.00,2013-11-29 01:27:00,
2013-11-28 19:30:00,27.9,17.0,30.34,NNW,330,0.0,6.0,63,0.00,,---,0.00,VWS V14.00,2013-11-29 01:30:00,
2013-11-28 19:32:00,27.9,17.0,30.34,NNW,333,0.0,3.0,63,0.00,,---,0.00,VWS V14.00,2013-11-29 01:32:00,
2013-11-28 19:35:00,27.9,17.0,30.34,NNW,333,0.0,3.0,63,0.00,,---,0.00,VWS V14.00,2013-11-29 01:35:00,
2013-11-28 19:37:00,27.9,17.0,30.34,NNW,333,0.0,0.0,63,0.00,,---,0.00,VWS V14.00,2013-11-29 01:37:00,
2013-11-28 19:40:00,27.9,17.0,30.34,NNW,333,0.0,0.0,63,0.00,,---,0.00,VWS V14.00,2013-11-29 01:40:00,
2013-11-28 19:42:00,27.9,16.6,30.34,NNW,333,0.0,1.0,62,0.00,,---,0.00,VWS V14.00,2013-11-29 01:42:00,
2013-11-28 19:45:00,27.9,17.0,30.35,NNW,333,2.0,2.0,63,0.00,,---,0.00,VWS V14.00,2013-11-29 01:45:00,
2013-11-28 19:47:00,27.9,16.6,30.35,NNW,333,0.0,2.0,62,0.00,,---,0.00,VWS V14.00,2013-11-29 01:47:00,
2013-11-28 19:50:00,27.9,16.6,30.35,NNW,333,2.0,2.0,62,0.00,,---,0.00,VWS V14.00,2013-11-29 01:50:00,
2013-11-28 19:52:00,27.9,16.6,30.35,NW,324,0.0,4.0,62,0.00,,---,0.00,VWS V14.00,2013-11-29 01:52:00,
2013-11-28 19:55:00,27.9,16.6,30.35,NW,324,0.0,4.0,62,0.00,,---,0.00,VWS V14.00,2013-11-29 01:55:00,
2013-11-28 19:57:00,27.9,16.6,30.35,NW,323,0.0,3.0,62,0.00,,---,0.00,VWS V14.00,2013-11-29 01:57:00,
2013-11-28 20:00:00,27.9,16.6,30.35,NW,324,0.0,3.0,62,0.00,,---,0.00,VWS V14.00,2013-11-29 02:00:00,
2013-11-28 20:02:00,27.8,16.9,30.35,NW,323,0.0,0.0,63,0.00,,---,0.00,VWS V14.00,2013-11-29 02:02:00,
2013-11-28 20:05:00,27.8,16.9,30.35,NW,323,0.0,0.0,63,0.00,,---,0.00,VWS V14.00,2013-11-29 02:05:00,
2013-11-28 20:07:00,27.7,17.1,30.35,NNE,22,2.0,5.0,64,0.00,,---,0.00,VWS V14.00,2013-11-29 02:07:00,
2013-11-28 20:10:00,27.7,17.1,30.35,NNE,17,3.0,5.0,64,0.00,,---,0.00,VWS V14.00,2013-11-29 02:10:00,
2013-11-28 20:12:00,27.7,17.1,30.35,North,5,0.0,4.0,64,0.00,,---,0.00,VWS V14.00,2013-11-29 02:12:00,
2013-11-28 20:15:00,27.6,17.0,30.35,North,360,0.0,4.0,64,0.00,,---,0.00,VWS V14.00,2013-11-29 02:15:00,
2013-11-28 20:17:00,27.6,17.0,30.35,North,360,0.0,3.0,64,0.00,,---,0.00,VWS V14.00,2013-11-29 02:17:00,
2013-11-28 20:20:00,27.6,17.0,30.36,North,360,0.0,3.0,64,0.00,,---,0.00,VWS V14.00,2013-11-29 02:20:00,
2013-11-28 20:22:00,27.5,17.3,30.36,North,360,0.0,0.0,65,0.00,,---,0.00,VWS V14.00,2013-11-29 02:22:00,
2013-11-28 20:25:00,27.5,17.3,30.36,North,360,0.0,0.0,65,0.00,,---,0.00,VWS V14.00,2013-11-29 02:25:00,
2013-11-28 20:27:00,27.4,17.2,30.36,North,360,0.0,0.0,65,0.00,,---,0.00,VWS V14.00,2013-11-29 02:27:00,
2013-11-28 20:30:00,27.3,17.1,30.36,North,360,0.0,0.0,65,0.00,,---,0.00,VWS V14.00,2013-11-29 02:30:00,
2013-11-28 20:32:00,27.3,17.5,30.37,North,360,0.0,0.0,66,0.00,,---,0.00,VWS V14.00,2013-11-29 02:32:00,
2013-11-28 20:35:00,27.2,17.4,30.37,North,360,0.0,0.0,66,0.00,,---,0.00,VWS V14.00,2013-11-29 02:35:00,
2013-11-28 20:37:00,27.1,17.3,30.37,North,360,0.0,0.0,66,0.00,,---,0.00,VWS V14.00,2013-11-29 02:37:00,
2013-11-28 20:40:00,27.0,17.2,30.37,North,360,0.0,0.0,66,0.00,,---,0.00,VWS V14.00,2013-11-29 02:40:00,
2013-11-28 20:42:00,26.9,17.4,30.37,North,360,0.0,0.0,67,0.00,,---,0.00,VWS V14.00,2013-11-29 02:42:00,
2013-11-28 20:45:00,26.9,17.4,30.37,North,360,0.0,0.0,67,0.00,,---,0.00,VWS V14.00,2013-11-29 02:45:00,
2013-11-28 20:47:00,26.8,17.3,30.37,North,360,0.0,0.0,67,0.00,,---,0.00,VWS V14.00,2013-11-29 02:47:00,
2013-11-28 20:50:00,26.7,17.2,30.37,North,360,0.0,0.0,67,0.00,,---,0.00,VWS V14.00,2013-11-29 02:50:00,
2013-11-28 20:52:00,26.7,17.6,30.37,North,360,0.0,0.0,68,0.00,,---,0.00,VWS V14.00,2013-11-29 02:52:00,
2013-11-28 20:55:00,26.6,17.8,30.37,North,360,0.0,0.0,69,0.00,,---,0.00,VWS V14.00,2013-11-29 02:55:00,
2013-11-28 20:57:00,26.5,17.7,30.37,North,360,0.0,0.0,69,0.00,,---,0.00,VWS V14.00,2013-11-29 02:57:00,
2013-11-28 21:00:00,26.3,17.5,30.37,North,360,0.0,0.0,69,0.00,,---,0.00,VWS V14.00,2013-11-29 03:00:00,
2013-11-28 21:02:00,26.2,17.4,30.38,North,360,0.0,0.0,69,0.00,,---,0.00,VWS V14.00,2013-11-29 03:02:00,
2013-11-28 21:05:00,26.1,17.3,30.38,North,360,0.0,0.0,69,0.00,,---,0.00,VWS V14.00,2013-11-29 03:05:00,
2013-11-28 21:07:00,25.8,17.4,30.38,North,360,0.0,0.0,70,0.00,,---,0.00,VWS V14.00,2013-11-29 03:07:00,
2013-11-28 21:10:00,25.8,17.4,30.38,North,360,0.0,0.0,70,0.00,,---,0.00,VWS V14.00,2013-11-29 03:10:00,
2013-11-28 21:12:00,25.6,17.2,30.38,North,360,0.0,0.0,70,0.00,,---,0.00,VWS V14.00,2013-11-29 03:12:00,
2013-11-28 21:15:00,25.6,17.2,30.38,North,360,0.0,0.0,70,0.00,,---,0.00,VWS V14.00,2013-11-29 03:15:00,
2013-11-28 21:17:00,25.4,17.0,30.38,North,360,0.0,0.0,70,0.00,,---,0.00,VWS V14.00,2013-11-29 03:17:00,
2013-11-28 21:20:00,25.3,17.2,30.38,North,360,0.0,0.0,71,0.00,,---,0.00,VWS V14.00,2013-11-29 03:20:00,
2013-11-28 21:22:00,25.1,17.0,30.38,North,360,0.0,0.0,71,0.00,,---,0.00,VWS V14.00,2013-11-29 03:22:00,
2013-11-28 21:25:00,25.0,16.9,30.38,North,360,0.0,0.0,71,0.00,,---,0.00,VWS V14.00,2013-11-29 03:25:00,
2013-11-28 21:27:00,24.9,16.8,30.39,North,360,0.0,0.0,71,0.00,,---,0.00,VWS V14.00,2013-11-29 03:27:00,
2013-11-28 21:30:00,24.9,16.8,30.38,North,360,0.0,0.0,71,0.00,,---,0.00,VWS V14.00,2013-11-29 03:30:00,
2013-11-28 21:32:00,24.7,16.6,30.38,North,360,0.0,0.0,71,0.00,,---,0.00,VWS V14.00,2013-11-29 03:32:00,
2013-11-28 21:35:00,24.5,16.5,30.38,North,360,0.0,0.0,71,0.00,,---,0.00,VWS V14.00,2013-11-29 03:35:00,
2013-11-28 21:37:00,24.4,16.4,30.39,North,360,0.0,0.0,71,0.00,,---,0.00,VWS V14.00,2013-11-29 03:37:00,
2013-11-28 21:40:00,24.2,16.2,30.39,North,360,0.0,0.0,71,0.00,,---,0.00,VWS V14.00,2013-11-29 03:40:00,
2013-11-28 21:42:00,23.9,15.9,30.39,North,360,0.0,0.0,71,0.00,,---,0.00,VWS V14.00,2013-11-29 03:42:00,
2013-11-28 21:45:00,23.7,15.7,30.39,North,360,0.0,0.0,71,0.00,,---,0.00,VWS V14.00,2013-11-29 03:45:00,
2013-11-28 21:47:00,23.5,15.8,30.39,North,360,0.0,0.0,72,0.00,,---,0.00,VWS V14.00,2013-11-29 03:47:00,
2013-11-28 21:50:00,23.5,15.8,30.39,North,360,0.0,0.0,72,0.00,,---,0.00,VWS V14.00,2013-11-29 03:50:00,
2013-11-28 21:52:00,23.4,15.7,30.39,North,360,0.0,0.0,72,0.00,,---,0.00,VWS V14.00,2013-11-29 03:52:00,
2013-11-28 21:55:00,23.4,15.7,30.39,North,360,0.0,0.0,72,0.00,,---,0.00,VWS V14.00,2013-11-29 03:55:00,
2013-11-28 21:57:00,23.2,15.5,30.39,North,360,0.0,0.0,72,0.00,,---,0.00,VWS V14.00,2013-11-29 03:57:00,
2013-11-28 22:00:00,23.1,15.4,30.39,North,360,0.0,0.0,72,0.00,,---,0.00,VWS V14.00,2013-11-29 04:00:00,
2013-11-28 22:02:00,22.7,15.4,30.40,North,360,0.0,0.0,73,0.00,,---,0.00,VWS V14.00,2013-11-29 04:02:00,
2013-11-28 22:05:00,22.6,15.3,30.40,North,360,0.0,0.0,73,0.00,,---,0.00,VWS V14.00,2013-11-29 04:05:00,
2013-11-28 22:07:00,22.4,15.1,30.40,North,360,0.0,0.0,73,0.00,,---,0.00,VWS V14.00,2013-11-29 04:07:00,
2013-11-28 22:10:00,22.2,15.2,30.40,North,360,0.0,0.0,74,0.00,,---,0.00,VWS V14.00,2013-11-29 04:10:00,
2013-11-28 22:12:00,21.9,14.9,30.40,North,360,0.0,0.0,74,0.00,,---,0.00,VWS V14.00,2013-11-29 04:12:00,
2013-11-28 22:15:00,21.8,14.8,30.40,North,360,0.0,0.0,74,0.00,,---,0.00,VWS V14.00,2013-11-29 04:15:00,
2013-11-28 22:17:00,21.5,14.5,30.40,North,360,0.0,0.0,74,0.00,,---,0.00,VWS V14.00,2013-11-29 04:17:00,
2013-11-28 22:20:00,21.3,14.3,30.41,North,360,0.0,0.0,74,0.00,,---,0.00,VWS V14.00,2013-11-29 04:20:00,
2013-11-28 22:22:00,20.9,14.2,30.41,North,360,0.0,0.0,75,0.00,,---,0.00,VWS V14.00,2013-11-29 04:22:00,
2013-11-28 22:25:00,20.7,14.0,30.41,North,360,0.0,0.0,75,0.00,,---,0.00,VWS V14.00,2013-11-29 04:25:00,
2013-11-28 22:27:00,20.4,13.8,30.41,North,360,0.0,0.0,75,0.00,,---,0.00,VWS V14.00,2013-11-29 04:27:00,
2013-11-28 22:30:00,20.3,14.0,30.41,North,360,0.0,0.0,76,0.00,,---,0.00,VWS V14.00,2013-11-29 04:30:00,
2013-11-28 22:32:00,20.2,14.2,30.41,North,360,0.0,0.0,77,0.00,,---,0.00,VWS V14.00,2013-11-29 04:32:00,
2013-11-28 22:35:00,20.2,14.4,30.41,North,360,0.0,0.0,78,0.00,,---,0.00,VWS V14.00,2013-11-29 04:35:00,
2013-11-28 22:37:00,20.2,14.4,30.41,North,360,0.0,0.0,78,0.00,,---,0.00,VWS V14.00,2013-11-29 04:37:00,
2013-11-28 22:40:00,20.2,14.4,30.41,North,360,0.0,0.0,78,0.00,,---,0.00,VWS V14.00,2013-11-29 04:40:00,
2013-11-28 22:42:00,20.1,14.6,30.41,North,360,0.0,0.0,79,0.00,,---,0.00,VWS V14.00,2013-11-29 04:42:00,
2013-11-28 22:45:00,20.2,14.7,30.41,North,360,0.0,0.0,79,0.00,,---,0.00,VWS V14.00,2013-11-29 04:45:00,
2013-11-28 22:47:00,20.1,14.6,30.41,North,360,0.0,0.0,79,0.00,,---,0.00,VWS V14.00,2013-11-29 04:47:00,
2013-11-28 22:50:00,20.0,14.3,30.41,North,360,0.0,0.0,78,0.00,,---,0.00,VWS V14.00,2013-11-29 04:50:00,
2013-11-28 22:52:00,19.8,14.4,30.41,North,360,0.0,0.0,79,0.00,,---,0.00,VWS V14.00,2013-11-29 04:52:00,
2013-11-28 22:55:00,19.7,14.3,30.41,North,360,0.0,0.0,79,0.00,,---,0.00,VWS V14.00,2013-11-29 04:55:00,
2013-11-28 22:57:00,19.5,14.1,30.41,North,360,0.0,0.0,79,0.00,,---,0.00,VWS V14.00,2013-11-29 04:57:00,
2013-11-28 23:00:00,19.5,14.1,30.41,North,360,0.0,0.0,79,0.00,,---,0.00,VWS V14.00,2013-11-29 05:00:00,
2013-11-28 23:01:00,19.5,14.4,30.41,North,360,0.0,0.0,80,0.00,,---,0.00,VWS V14.00,2013-11-29 05:01:00,
2013-11-28 23:05:00,19.5,14.4,30.42,North,360,0.0,0.0,80,0.00,,---,0.00,VWS V14.00,2013-11-29 05:05:00,
2013-11-28 23:06:00,19.4,14.2,30.42,North,360,0.0,0.0,80,0.00,,---,0.00,VWS V14.00,2013-11-29 05:06:00,
2013-11-28 23:10:00,19.3,14.1,30.42,North,360,0.0,0.0,80,0.00,,---,0.00,VWS V14.00,2013-11-29 05:10:00,
2013-11-28 23:11:00,19.2,14.1,30.42,North,360,0.0,0.0,80,0.00,,---,0.00,VWS V14.00,2013-11-29 05:11:00,
2013-11-28 23:15:00,19.0,13.9,30.42,North,360,0.0,0.0,80,0.00,,---,0.00,VWS V14.00,2013-11-29 05:15:00,
2013-11-28 23:16:00,18.8,13.7,30.42,North,360,0.0,0.0,80,0.00,,---,0.00,VWS V14.00,2013-11-29 05:16:00,
2013-11-28 23:20:00,18.6,13.5,30.42,North,360,0.0,0.0,80,0.00,,---,0.00,VWS V14.00,2013-11-29 05:20:00,
2013-11-28 23:21:00,18.4,13.3,30.42,North,360,0.0,0.0,80,0.00,,---,0.00,VWS V14.00,2013-11-29 05:21:00,
2013-11-28 23:25:00,18.2,13.1,30.42,North,360,0.0,0.0,80,0.00,,---,0.00,VWS V14.00,2013-11-29 05:25:00,
2013-11-28 23:26:00,18.1,13.3,30.43,North,360,0.0,0.0,81,0.00,,---,0.00,VWS V14.00,2013-11-29 05:26:00,
2013-11-28 23:30:00,18.0,13.4,30.42,North,360,0.0,0.0,82,0.00,,---,0.00,VWS V14.00,2013-11-29 05:30:00,
2013-11-28 23:31:00,18.0,13.4,30.42,North,360,0.0,0.0,82,0.00,,---,0.00,VWS V14.00,2013-11-29 05:31:00,
2013-11-28 23:35:00,17.9,13.4,30.43,North,360,0.0,0.0,82,0.00,,---,0.00,VWS V14.00,2013-11-29 05:35:00,
2013-11-28 23:36:00,17.8,13.2,30.43,North,360,0.0,0.0,82,0.00,,---,0.00,VWS V14.00,2013-11-29 05:36:00,
2013-11-28 23:40:00,17.6,13.1,30.43,North,360,0.0,0.0,82,0.00,,---,0.00,VWS V14.00,2013-11-29 05:40:00,
2013-11-28 23:41:00,17.5,13.2,30.43,North,360,0.0,0.0,83,0.00,,---,0.00,VWS V14.00,2013-11-29 05:41:00,
2013-11-28 23:45:00,17.3,13.0,30.43,North,360,0.0,0.0,83,0.00,,---,0.00,VWS V14.00,2013-11-29 05:45:00,
2013-11-28 23:46:00,17.2,12.9,30.43,North,360,0.0,0.0,83,0.00,,---,0.00,VWS V14.00,2013-11-29 05:46:00,
2013-11-28 23:50:00,17.2,13.2,30.43,North,360,0.0,0.0,84,0.00,,---,0.00,VWS V14.00,2013-11-29 05:50:00,
2013-11-28 23:51:00,17.1,13.1,30.43,North,360,0.0,0.0,84,0.00,,---,0.00,VWS V14.00,2013-11-29 05:51:00,
2013-11-28 23:55:00,17.0,13.0,30.43,North,360,0.0,0.0,84,0.00,,---,0.00,VWS V14.00,2013-11-29 05:55:00,
2013-11-28 23:56:00,16.9,12.9,30.43,North,360,0.0,0.0,84,0.00,,---,0.00,VWS V14.00,2013-11-29 05:56:00,